SCP
0 0 0 0 0 0 0 0 0 0 0 0 0 0 0 0 0 0 0 1 1 1 1 1 1 1 0 0 0 0 0 0 0 0 0 0 0 0 0 0 0 0 0 0 0 0 0 0 0
0 0 0 0 0 0 0 0 0 0 0 0 0 0 0 0 0 0 0 1 1 1 1 1 1 1 0 0 0 0 0 0 0 0 0 0 0 0 0 0 0 0 0 0 0 0 0 0 0
0 0 0 0 0 0 0 0 0 0 0 0 0 0 0 0 0 0 0 1 1 1 1 1 1 1 0 0 0 0 0 0 0 0 0 0 0 0 0 0 0 0 0 0 0 0 0 0 0
-0 0 0 0 0 0 0 0 0 0 0 0 0 0 0 0 0 0 0 1 1 1 1 1 1 1 0 0 0 0 0 0 0 0 0 0 0 0 0 0 0 0 0 0 0 0 0 0 0
-0 0 0 0 0 0 0 0 0 0 0 0 0 0 0 0 0 0 0 1 1 1 1 1 1 1 1 0 0 0 0 0 0 0 0 0 0 0 0 0 0 0 0 0 0 0 0 0 0
0 0 0 0 0 0 0 0 0 0 0 0 0 0 0 0 0 0 0 0 1 1 1 1 1 1 1 1 0 0 0 0 0 0 0 0 0 0 0 0 0 0 0 0 0 0 0 0 0
0 0 0 0 0 0 0 0 0 0 0 0 0 0 1 0 0 0 0 0 1 1 1 1 1 1 1 1 1 1 1 0 0 0 0 0 0 0 0 1 1 1 1 1 0 0 0 0 0
-0 0 0 0 0 0 0 0 0 0 0 0 0 1 1 1 0 0 0 0 1 1 2 1 1 1 1 1 1 1 1 1 1 1 1 1 1 1 1 1 1 1 1 1 1 1 1 1 0
0 0 0 0 0 0 0 0 0 0 0 0 1 1 1 1 0 0 0 0 1 1 2 1 1 1 1 1 1 1 1 1 1 1 1 1 1 1 1 1 1 1 1 1 1 1 1 1 1
0 0 0 0 0 0 0 0 0 0 0 1 1 1 1 1 1 1 1 1 1 2 2 2 1 1 1 1 1 1 1 1 1 1 1 1 1 1 1 1 1 1 1 1 1 1 1 1 1
0 0 0 0 0 0 0 0 0 0 0 1 1 1 1 1 1 2 2 2 2 2 2 2 2 2 1 1 1 1 1 1 1 1 2 2 1 1 1 2 2 2 2 1 1 1 1 1 1
0 0 0 0 0 0 0 0 0 0 1 1 1 2 2 2 2 3 3 3 3 3 2 2 3 2 2 2 2 1 1 2 2 2 2 2 2 2 2 2 2 2 2 2 1 1 1 1 1
0 0 0 0 0 -0 0 0 0 0 1 1 1 2 2 2 3 3 4 4 4 3 3 3 3 3 3 2 2 2 2 2 2 3 3 3 3 3 2 2 3 2 2 2 2 1 1 1 1
0 0 0 0 0 0 0 0 0 0 1 1 1 2 3 3 4 4 4 4 4 4 3 3 3 3 3 3 2 2 2 2 2 3 3 3 3 3 3 3 3 2 2 2 2 1 1 1 1
0 0 0 0 0 0 0 0 0 1 1 1 2 2 3 4 4 5 5 5 5 4 4 4 3 3 3 3 2 2 2 2 2 3 3 3 3 3 3 2 2 2 2 2 2 1 1 1 1
0 0 0 0 0 0 0 0 1 1 1 2 2 2 3 3 4 4 5 5 4 4 4 4 3 3 3 3 2 2 2 2 2 2 2 2 2 2 2 2 2 2 2 2 1 1 1 1 1
0 0 0 0 0 0 0 0 1 1 1 2 2 2 2 2 2 3 3 3 3 3 4 3 3 3 3 2 2 2 2 2 2 2 2 2 1 1 1 2 2 2 1 1 1 1 1 1 1
0 0 0 0 0 0 0 0 1 1 1 1 1 1 1 1 1 1 2 2 2 2 2 3 2 2 2 2 2 2 2 2 2 2 2 1 1 1 1 1 1 1 1 1 1 1 1 1 1
0 0 0 0 0 0 0 1 1 1 1 1 1 1 1 1 1 1 1 1 1 1 2 2 2 2 2 2 2 2 2 2 1 1 1 1 1 1 1 1 1 1 1 1 1 1 1 0 0
0 0 0 0 0 0 0 1 1 1 1 1 1 1 1 1 1 1 1 1 1 1 1 1 1 2 2 2 2 2 1 1 1 1 1 1 1 1 1 1 1 1 1 1 1 1 0 0 0
0 0 0 0 0 0 0 0 1 1 1 1 1 1 1 1 0 0 0 1 1 1 1 1 1 1 1 1 1 1 1 1 1 1 1 1 1 1 1 1 1 1 1 1 0 0 0 0 0
0 0 0 0 0 0 0 0 1 1 0 0 0 0 0 0 0 0 0 0 0 0 1 1 1 1 1 1 1 1 1 1 1 1 1 1 1 0 1 1 1 1 1 1 0 0 0 0 0
0 0 0 0 0 0 0 0 0 0 0 0 0 0 0 0 0 0 0 0 0 0 0 1 1 1 1 1 1 1 1 1 1 1 1 1 0 0 0 0 0 0 0 0 0 0 0 0 0
0 0 0 0 0 0 0 0 0 0 0 0 0 0 0 0 0 0 0 0 0 0 0 1 1 1 1 1 1 1 1 1 1 1 1 0 0 0 0 0 0 0 0 0 0 0 1 1 1
0 0 0 0 0 0 0 0 0 0 0 0 0 0 0 0 0 0 0 0 0 0 0 1 1 1 1 1 1 1 1 1 1 1 0 0 0 0 0 0 0 0 0 0 0 0 0 0 1
0 0 0 0 0 0 0 0 0 0 0 0 0 0 0 0 0 0 0 0 0 0 0 0 1 1 1 1 1 1 1 1 1 0 0 0 0 0 0 0 0 0 0 0 0 0 0 0 0
0 0 0 0 0 0 0 0 0 0 0 0 0 0 0 0 0 0 0 0 0 0 0 0 0 1 1 1 1 1 1 1 0 0 0 0 0 0 0 0 0 0 0 0 0 0 0 0 0
0 0 0 0 0 0 0 0 0 0 0 0 0 0 0 0 0 0 0 0 0 0 0 0 0 0 0 0 0 0 0 0 0 0 0 0 0 0 0 0 0 0 0 0 0 0 0 0 0
0 0 0 0 0 0 0 0 0 0 0 0 0 0 0 0 0 0 0 0 0 0 0 0 0 0 0 0 0 0 0 0 0 0 0 0 0 0 0 0 0 0 0 0 0 0 0 0 0
0 0 0 0 0 0 0 0 0 0 0 0 0 0 0 0 0 0 0 0 0 0 0 0 0 0 0 0 0 0 0 0 0 0 0 0 0 0 0 0 0 0 0 0 0 0 0 0 0
Wind_Speed
12 12 10 7 5 2 8 9 7 9 9 9 8 7 12 16 12 9 9 14 21 21 19 18 17 15 14 13 13 13 12 12 12 12 11 11 10 10 9 9 8 8 8 9 8 9 9 9 9
12 13 10 7 5 2 6 7 7 9 8 6 6 8 13 15 12 11 11 15 22 20 17 16 18 15 14 13 13 12 12 12 12 11 11 11 10 9 9 8 8 8 8 8 8 8 8 9 8
13 14 8 8 8 6 5 3 3 5 5 5 6 9 11 10 10 10 13 17 21 18 16 17 18 16 15 13 12 12 12 12 12 11 11 10 10 9 9 8 8 8 8 7 8 8 8 7 7
9 10 8 11 14 8 4 3 5 5 5 4 4 10 10 7 8 12 15 18 19 18 18 18 18 16 15 14 12 12 12 12 11 11 10 10 10 9 9 9 8 8 8 8 7 7 7 7 7
11 8 12 15 14 10 4 4 5 5 5 6 7 13 11 11 13 15 15 18 18 18 18 18 18 17 15 14 13 12 11 11 11 10 10 10 10 9 9 9 8 8 8 8 8 7 8 7 7
8 9 13 14 11 9 3 4 6 6 4 5 6 11 9 11 12 14 15 15 17 19 19 16 17 16 15 14 13 12 11 11 10 10 10 10 9 9 9 9 9 9 9 8 8 8 8 8 8
11 12 17 20 17 11 3 2 5 5 4 5 3 10 10 12 11 12 12 12 16 20 18 15 14 13 14 13 12 11 11 10 10 10 10 10 10 10 10 9 10 10 10 10 10 10 10 10 9
12 12 19 20 18 11 3 2 2 4 4 5 4 7 10 13 12 13 11 10 14 18 17 15 14 12 11 11 12 12 11 11 11 11 11 11 11 11 12 11 12 12 12 12 11 11 11 11 11
16 14 16 20 15 10 7 6 4 3 2 5 9 11 11 15 14 13 10 10 10 14 14 14 14 12 11 12 13 13 12 11 11 10 12 11 9 11 11 15 15 16 14 14 13 13 13 12 12
15 14 19 20 17 15 11 10 8 4 4 10 11 11 9 9 11 11 10 11 10 11 12 11 12 11 10 9 10 9 9 10 10 8 10 9 8 7 10 14 18 18 17 15 15 14 13 11 9
18 19 19 21 19 15 14 13 8 7 6 9 8 6 5 5 8 9 8 8 9 7 7 9 10 7 7 5 8 5 5 7 10 10 9 8 7 6 6 4 9 11 13 10 11 12 9 9 8
21 20 19 19 17 14 13 12 7 6 8 8 7 6 6 6 7 7 6 7 9 6 5 6 8 5 1 1 2 3 3 3 5 7 8 6 4 4 3 2 3 6 6 7 6 6 9 9 9
18 18 18 18 16 13 12 11 5 3 8 8 8 6 4 4 6 7 7 7 8 5 3 4 5 5 2 2 2 2 1 1 1 0 3 3 2 3 3 2 2 2 3 5 6 5 7 7 8
17 17 17 16 14 12 10 9 4 2 6 8 8 7 7 9 9 9 8 7 7 5 4 5 5 5 3 1 2 3 3 2 3 2 2 1 1 1 2 2 3 3 3 3 4 6 5 5 5
16 17 17 16 14 10 9 8 2 4 6 7 9 11 13 12 12 12 10 9 7 6 6 6 4 4 3 1 2 3 2 2 2 2 2 2 2 2 2 3 3 4 4 4 4 5 5 5 7
17 17 16 15 11 9 10 5 3 4 6 8 10 11 11 10 10 10 10 9 9 9 8 7 5 5 3 2 2 3 3 3 2 2 2 3 3 3 3 3 4 4 4 4 5 5 5 5 6
15 13 13 6 4 5 7 5 6 6 7 8 9 9 9 9 9 9 9 9 8 8 7 7 6 6 4 3 2 2 2 2 2 2 2 2 3 5 4 3 3 3 4 4 6 5 4 5 6
10 7 7 4 4 4 4 7 10 7 8 10 10 9 8 8 7 7 7 7 7 7 6 5 5 5 4 2 1 1 2 2 2 1 1 2 3 4 3 3 4 4 3 4 4 4 4 4 5
11 9 5 5 5 5 5 6 9 8 6 9 10 9 8 7 7 6 6 6 6 6 5 4 4 3 2 2 3 3 2 2 2 1 1 2 3 3 3 3 3 3 4 4 5 4 5 5 4
9 9 6 3 4 7 5 3 6 8 5 6 9 10 9 8 7 6 5 5 5 5 4 3 3 4 3 3 2 2 3 3 1 1 1 1 2 2 3 2 2 3 3 3 3 3 3 4 4
8 9 7 8 9 8 4 2 5 7 5 4 6 9 9 8 7 6 5 5 4 4 3 4 3 3 4 4 3 4 2 2 2 2 1 1 2 2 2 3 2 2 3 3 3 3 4 4 3
8 8 9 9 8 4 1 2 3 2 2 3 5 7 7 7 6 5 5 4 2 2 2 3 2 1 2 4 4 6 5 4 4 2 1 1 2 2 2 2 2 2 2 3 3 2 3 4 3
7 7 7 10 9 6 5 2 1 2 4 6 6 8 8 6 5 4 4 2 1 1 0 1 2 0 1 3 4 5 5 5 5 5 4 3 3 3 3 2 2 2 2 2 3 3 3 3 3
8 5 6 10 8 7 5 1 2 4 7 6 7 7 6 5 4 4 2 2 1 2 2 1 0 1 1 3 4 5 6 6 6 7 6 5 3 3 3 3 1 1 2 3 3 3 4 3 3
9 6 4 5 3 6 5 2 3 4 6 7 6 6 5 4 3 2 1 2 2 2 2 2 2 2 3 4 5 5 6 6 7 8 6 5 4 3 2 2 2 2 2 3 3 3 3 3 3
8 7 3 5 6 4 2 1 2 3 3 4 5 4 2 1 1 0 2 1 2 4 3 4 4 4 4 4 5 5 6 6 6 6 6 6 5 5 4 3 3 3 3 4 2 3 3 3 3
8 9 9 8 8 1 5 4 1 1 2 2 3 3 3 4 5 4 5 5 6 6 6 6 5 5 5 5 6 6 7 6 6 6 7 6 6 6 5 4 4 4 4 4 4 3 3 3 3
7 9 7 7 8 7 6 5 3 3 2 5 5 6 7 7 7 8 7 7 7 7 6 6 6 6 6 6 6 8 6 7 7 7 7 7 7 7 7 7 6 6 6 6 5 4 4 4 3
8 8 8 7 7 9 5 6 4 2 3 5 6 8 8 9 9 9 9 9 9 9 9 7 8 7 7 6 6 6 6 6 7 7 7 7 7 7 7 7 7 7 7 7 6 6 6 6 5
8 7 8 7 8 7 6 6 3 3 5 7 8 9 9 9 9 10 10 10 9 9 9 9 8 8 8 7 7 7 7 7 8 8 7 8 8 7 8 7 8 9 9 8 8 8 8 7 7
Wind_Direction
183 203 214 232 239 260 298 308 16 40 47 48 44 31 55 53 45 78 117 123 118 124 133 139 138 138 137 139 142 144 145 146 146 145 144 142 140 138 135 132 129 124 120 118 117 115 114 112 111
197 207 218 238 232 220 283 299 12 35 43 41 60 43 66 66 67 102 115 119 120 127 139 141 141 140 140 140 142 146 148 149 150 150 150 149 148 147 146 144 139 133 128 126 128 126 123 122 122
225 226 242 242 239 219 233 286 10 47 51 38 59 67 56 69 76 98 119 128 124 132 137 136 145 144 143 143 144 148 151 153 155 156 156 156 156 156 155 152 148 145 142 140 140 137 135 135 136
232 226 242 252 269 277 277 355 8 25 55 46 46 85 78 65 90 112 133 132 130 136 134 140 147 147 147 148 149 152 154 156 159 161 161 161 162 163 163 161 160 159 156 155 154 151 150 153 155
238 252 248 258 269 279 297 357 357 18 30 33 51 83 87 88 103 125 140 137 141 138 132 143 148 149 151 153 156 158 160 162 165 167 168 170 172 173 174 174 173 170 169 170 169 168 167 169 174
242 251 264 277 284 280 288 18 338 13 33 46 65 93 102 116 123 140 141 148 145 134 133 140 148 151 154 158 161 164 167 169 172 175 177 180 183 185 188 187 185 183 183 183 182 183 182 184 188
255 275 283 290 289 289 308 12 341 350 359 43 59 111 124 126 134 136 139 161 142 132 131 144 149 154 158 162 167 171 174 177 181 184 188 191 194 196 199 200 197 196 195 195 196 196 195 196 199
259 280 283 282 284 296 341 359 330 329 38 40 12 90 128 133 147 138 156 159 135 130 137 148 152 156 163 168 175 178 183 187 191 195 199 202 206 210 211 209 206 206 204 204 206 207 207 206 207
256 263 270 276 294 318 336 329 338 354 75 67 43 61 118 142 149 145 157 149 135 132 139 150 152 160 172 176 174 180 190 196 199 204 209 211 215 214 210 217 208 206 208 209 211 214 214 214 215
241 254 265 280 301 311 316 313 315 307 45 59 49 64 99 139 147 150 159 155 146 139 142 150 150 164 180 183 157 184 191 190 202 206 200 207 223 233 227 208 205 206 208 211 216 218 219 218 221
243 251 269 285 296 305 306 305 323 325 39 64 68 68 93 142 142 151 162 149 136 141 147 149 147 165 182 174 157 191 195 179 198 215 201 205 219 229 236 208 192 202 208 213 217 218 220 220 222
251 252 264 277 287 295 294 294 308 349 56 78 100 123 141 141 127 136 140 128 130 149 156 147 141 153 200 155 163 190 206 182 198 200 210 209 210 242 256 243 188 192 202 207 215 210 216 224 227
263 261 260 264 269 272 275 278 286 25 67 72 81 91 102 114 126 120 117 112 118 130 129 100 105 120 117 17 344 317 308 293 253 194 203 217 213 233 262 281 279 245 219 202 212 218 225 225 228
278 278 275 270 262 258 256 256 243 120 96 94 90 75 58 58 66 74 79 88 106 112 103 93 82 89 84 33 326 319 319 338 341 349 348 328 286 266 265 270 272 268 261 245 216 223 224 227 231
273 271 268 263 253 246 242 243 201 117 113 105 93 77 59 50 53 59 57 57 66 74 71 73 84 75 70 13 323 304 306 323 337 338 334 317 292 279 271 262 258 258 258 258 249 239 232 226 230
275 266 262 256 239 233 234 214 117 105 102 100 92 85 78 63 59 60 62 58 56 60 60 53 48 57 50 20 336 314 322 329 331 320 317 326 312 288 268 255 250 256 259 252 245 241 235 233 229
267 270 273 261 257 250 229 152 122 126 133 114 102 96 93 84 69 62 61 63 59 59 59 59 48 41 34 14 338 311 320 321 317 319 318 317 308 294 275 258 256 258 258 252 251 235 232 239 236
286 291 297 299 265 258 236 143 138 139 141 120 111 103 96 90 81 77 71 72 70 66 60 57 61 42 16 9 334 313 312 298 288 299 322 316 305 300 301 276 266 263 260 260 255 248 237 237 233
277 276 264 251 242 250 230 170 136 122 119 120 115 111 104 100 102 95 89 85 84 76 71 64 52 44 18 20 343 336 324 302 297 292 302 301 304 312 306 290 283 268 258 256 249 239 242 242 231
285 298 304 294 293 276 246 144 109 96 98 108 119 122 124 122 114 108 107 104 96 88 82 84 57 34 16 19 319 286 298 295 274 305 312 302 310 310 296 305 302 282 265 262 265 245 247 248 227
307 309 307 283 254 254 263 86 79 81 86 103 122 126 131 133 131 126 113 96 95 95 78 65 53 28 12 344 326 332 310 295 315 320 292 309 279 271 297 304 303 305 292 269 264 250 233 248 240
306 298 291 297 296 298 308 190 107 98 152 180 147 135 131 128 131 129 126 116 111 121 130 122 100 35 355 332 341 333 319 320 317 311 305 300 276 266 264 282 292 296 295 297 282 273 251 243 243
279 279 306 334 335 325 13 34 79 174 212 195 167 147 135 137 136 135 128 131 98 328 10 136 133 113 326 316 305 310 315 321 321 325 312 298 271 244 237 238 263 301 302 302 305 306 286 254 244
286 281 349 17 7 331 307 317 181 207 204 185 164 141 141 140 142 143 146 157 233 270 283 307 321 236 275 291 300 300 302 304 304 300 291 283 270 247 227 221 200 272 297 309 301 296 292 287 271
322 322 347 358 4 266 263 278 150 200 174 162 151 134 133 139 146 144 196 226 250 277 307 329 331 329 323 311 309 309 306 299 286 279 283 286 286 281 252 249 202 229 245 270 282 285 283 287 289
302 300 298 291 268 240 163 172 77 109 123 146 130 114 109 96 85 21 302 308 328 338 357 352 351 338 321 303 294 288 285 281 282 295 311 305 297 290 280 262 239 237 239 251 258 278 279 263 261
313 323 327 305 311 30 131 128 130 223 171 104 78 69 51 22 11 357 353 360 0 359 1 355 346 337 323 305 297 281 271 274 282 288 283 277 277 285 292 300 272 255 250 249 246 245 259 265 251
320 332 343 341 337 338 100 111 152 178 31 29 12 22 26 14 4 4 3 1 4 358 353 348 340 330 326 322 312 308 309 302 291 284 280 278 280 279 277 271 268 257 248 241 234 240 241 238 237
345 354 353 343 347 334 10 91 118 86 38 20 11 20 15 5 358 355 356 1 360 353 344 342 338 334 328 319 310 306 303 301 298 291 286 283 279 274 268 265 264 258 250 243 234 231 234 231 232
337 353 353 350 342 330 347 102 102 83 61 34 17 12 9 359 351 352 355 357 351 343 340 337 334 327 323 320 316 311 308 308 306 303 301 298 290 282 276 267 262 256 252 240 235 235 236 227 224